• In Hungary
  • List of Countries
  • For 7 days
  • Water Temperature
  • Satellite Maps
  • Weather Map
  • News
  • Weather Widgets
  • user-avatar
    Login

    Hourly Weather Jacksonville

    Today, 19 October, Thursday

    Time Temperature Precipitation Wind Pressure Humidity
    00:00 +22°C° 0.1 mm 4 mps 765 mmHg 87%
    01:00 +22°C° 0.1 mm 4 mps 765 mmHg 87%
    02:00 +21°C° 0 mm 4 mps 765 mmHg 87%
    03:00 +21°C° 0 mm 4 mps 764 mmHg 87%
    04:00 +21°C° 0 mm 4 mps 764 mmHg 88%
    05:00 +21°C° 0.1 mm 4 mps 764 mmHg 88%
    06:00 +21°C° 0.1 mm 5 mps 765 mmHg 88%
    07:00 +21°C° 0.1 mm 5 mps 765 mmHg 88%
    08:00 +23°C° 0.1 mm 5 mps 765 mmHg 81%
    09:00 +25°C° 0.1 mm 5 mps 765 mmHg 74%
    10:00 +27°C° 0.1 mm 6 mps 766 mmHg 68%
    11:00 +27°C° 0.2 mm 6 mps 766 mmHg 66%
    12:00 +28°C° 0.2 mm 6 mps 765 mmHg 63%
    13:00 +29°C° 0.2 mm 6 mps 765 mmHg 61%
    14:00 +28°C° 0.1 mm 6 mps 765 mmHg 61%
    15:00 +28°C° 0.1 mm 6 mps 764 mmHg 61%
    16:00 +28°C° 0.1 mm 6 mps 764 mmHg 60%
    17:00 +27°C° 0 mm 6 mps 764 mmHg 65%
    18:00 +26°C° 0 mm 5 mps 765 mmHg 71%
    19:00 +23°C° 0 mm 5 mps 765 mmHg 76%
    20:00 +23°C° 0 mm 5 mps 765 mmHg 76%
    21:00 +23°C° 0 mm 4 mps 765 mmHg 77%
    22:00 +22°C° 0 mm 4 mps 766 mmHg 77%
    23:00 +22°C° 0 mm 4 mps 765 mmHg 79%

    Tomorrow, 20 October, Friday

    Time Temperature Precipitation Wind Pressure Humidity
    00:00 +22°C° 0 mm 4 mps 765 mmHg 80%
    01:00 +22°C° 0 mm 4 mps 765 mmHg 81%
    02:00 +22°C° 0 mm 4 mps 765 mmHg 82%
    03:00 +21°C° 0 mm 4 mps 765 mmHg 82%
    04:00 +21°C° 0 mm 4 mps 765 mmHg 83%
    05:00 +21°C° 0 mm 4 mps 765 mmHg 83%
    06:00 +21°C° 0 mm 4 mps 765 mmHg 83%
    07:00 +21°C° 0 mm 4 mps 765 mmHg 83%
    08:00 +23°C° 0 mm 4 mps 766 mmHg 76%
    09:00 +26°C° 0 mm 5 mps 766 mmHg 69%
    10:00 +28°C° 0 mm 5 mps 767 mmHg 62%
    11:00 +28°C° 0 mm 5 mps 766 mmHg 60%
    12:00 +29°C° 0 mm 5 mps 766 mmHg 58%
    13:00 +29°C° 0 mm 5 mps 765 mmHg 56%
    14:00 +29°C° 0 mm 5 mps 765 mmHg 57%
    15:00 +29°C° 0 mm 5 mps 765 mmHg 57%
    16:00 +29°C° 0 mm 5 mps 765 mmHg 58%
    17:00 +27°C° 0 mm 5 mps 765 mmHg 65%
    18:00 +26°C° 0 mm 4 mps 765 mmHg 72%
    19:00 +25°C° 0 mm 4 mps 765 mmHg 79%
    20:00 +23°C° 0 mm 4 mps 765 mmHg 80%
    21:00 +23°C° 0 mm 4 mps 766 mmHg 82%
    22:00 +23°C° 0 mm 4 mps 766 mmHg 83%
    23:00 +23°C° 0.1 mm 4 mps 766 mmHg 84%

    Day after tomorrow, 21 October, Saturday

    Time Temperature Precipitation Wind Pressure Humidity
    00:00 +23°C° 0.1 mm 4 mps 766 mmHg 86%
    01:00 +22°C° 0.1 mm 3 mps 766 mmHg 88%
    02:00 +22°C° 0.1 mm 3 mps 766 mmHg 88%
    03:00 +22°C° 0.1 mm 3 mps 765 mmHg 88%
    04:00 +22°C° 0.1 mm 3 mps 765 mmHg 88%
    05:00 +22°C° 0.1 mm 3 mps 765 mmHg 89%
    06:00 +22°C° 0.1 mm 3 mps 766 mmHg 89%
    07:00 +22°C° 0.1 mm 3 mps 766 mmHg 90%
    08:00 +25°C° 0 mm 4 mps 766 mmHg 80%
    09:00 +27°C° 0 mm 4 mps 767 mmHg 69%
    10:00 +29°C° 0 mm 5 mps 767 mmHg 59%
    11:00 +30°C° 0.1 mm 5 mps 767 mmHg 57%
    12:00 +30°C° 0.1 mm 5 mps 766 mmHg 55%
    13:00 +32°C° 0.1 mm 5 mps 766 mmHg 53%
    14:00 +30°C° 0.2 mm 5 mps 766 mmHg 57%
    15:00 +29°C° 0.2 mm 5 mps 766 mmHg 62%
    16:00 +28°C° 0.2 mm 6 mps 766 mmHg 67%
    17:00 +27°C° 0.2 mm 5 mps 766 mmHg 72%
    18:00 +26°C° 0.2 mm 5 mps 766 mmHg 77%
    19:00 +25°C° 0.2 mm 5 mps 766 mmHg 81%
    20:00 +25°C° 0 mm 4 mps 766 mmHg 82%
    21:00 +25°C° 0 mm 4 mps 767 mmHg 83%
    22:00 +23°C° 0 mm 4 mps 767 mmHg 83%
    23:00 +23°C° 0 mm 4 mps 767 mmHg 85%

    22 October, Sunday

    Time Temperature Precipitation Wind Pressure Humidity
    00:00 +24°C° 0 mm 3 mps 766 mmHg 86%
    01:00 +24°C° 0 mm 3 mps 766 mmHg 88%
    02:00 +24°C° 0.1 mm 3 mps 766 mmHg 89%
    03:00 +24°C° 0.1 mm 3 mps 766 mmHg 91%
    04:00 +24°C° 0.1 mm 3 mps 765 mmHg 92%
    05:00 +24°C° 0.2 mm 3 mps 765 mmHg 93%
    06:00 +24°C° 0.2 mm 3 mps 766 mmHg 93%
    07:00 +23°C° 0.2 mm 4 mps 766 mmHg 94%
    08:00 +26°C° 0.3 mm 4 mps 766 mmHg 87%
    09:00 +27°C° 0.3 mm 4 mps 766 mmHg 80%
    10:00 +29°C° 0.3 mm 4 mps 767 mmHg 73%
    11:00 +30°C° 0 mm 4 mps 766 mmHg 65%
    12:00 +32°C° 0 mm 4 mps 766 mmHg 57%
    13:00 +34°C° 0 mm 4 mps 765 mmHg 49%
    14:00 +33°C° 0.1 mm 4 mps 765 mmHg 52%
    15:00 +33°C° 0.1 mm 4 mps 764 mmHg 56%
    16:00 +32°C° 0.1 mm 4 mps 764 mmHg 59%
    17:00 +29°C° 0.3 mm 4 mps 764 mmHg 67%
    18:00 +28°C° 0.3 mm 4 mps 764 mmHg 74%
    19:00 +27°C° 0.3 mm 4 mps 765 mmHg 82%
    20:00 +26°C° 0.1 mm 4 mps 765 mmHg 84%
    21:00 +26°C° 0.1 mm 4 mps 765 mmHg 86%
    22:00 +26°C° 0.1 mm 4 mps 765 mmHg 87%
    23:00 +26°C° 0.1 mm 4 mps 764 mmHg 88%

    23 October, Monday

    Time Temperature Precipitation Wind Pressure Humidity
    00:00 +25°C° 0.1 mm 4 mps 764 mmHg 90%
    01:00 +25°C° 0.1 mm 4 mps 763 mmHg 91%
    02:00 +25°C° 0.1 mm 4 mps 763 mmHg 91%
    03:00 +25°C° 0.1 mm 3 mps 763 mmHg 92%
    04:00 +25°C° 0.1 mm 3 mps 762 mmHg 92%
    05:00 +25°C° 0.2 mm 3 mps 762 mmHg 93%
    06:00 +25°C° 0.2 mm 3 mps 762 mmHg 93%
    07:00 +24°C° 0.2 mm 3 mps 762 mmHg 93%
    08:00 +26°C° 0.1 mm 4 mps 762 mmHg 84%
    09:00 +28°C° 0.1 mm 4 mps 762 mmHg 75%
    10:00 +30°C° 0.1 mm 5 mps 762 mmHg 66%
    11:00 +32°C° 0 mm 5 mps 762 mmHg 62%
    12:00 +32°C° 0 mm 5 mps 761 mmHg 58%
    13:00 +33°C° 0 mm 5 mps 760 mmHg 55%
    14:00 +30°C° 0.4 mm 5 mps 760 mmHg 64%
    15:00 +29°C° 0.4 mm 4 mps 759 mmHg 73%
    16:00 +27°C° 0.4 mm 4 mps 759 mmHg 83%
    17:00 +27°C° 0.4 mm 4 mps 759 mmHg 85%
    18:00 +26°C° 0.4 mm 4 mps 759 mmHg 87%
    19:00 +26°C° 0.4 mm 4 mps 759 mmHg 89%
    20:00 +25°C° 0.1 mm 4 mps 759 mmHg 90%
    21:00 +25°C° 0.1 mm 4 mps 759 mmHg 91%
    22:00 +25°C° 0.1 mm 4 mps 759 mmHg 91%
    23:00 +23°C° 0.5 mm 4 mps 759 mmHg 91%

    24 October, Tuesday

    Time Temperature Precipitation Wind Pressure Humidity
    00:00 +23°C° 0.5 mm 4 mps 759 mmHg 92%
    01:00 +23°C° 0.5 mm 5 mps 759 mmHg 92%
    02:00 +22°C° 0.3 mm 4 mps 759 mmHg 91%
    03:00 +21°C° 0.3 mm 4 mps 759 mmHg 91%
    04:00 +20°C° 0.3 mm 4 mps 759 mmHg 90%
    05:00 +19°C° 0 mm 3 mps 759 mmHg 89%
    06:00 +18°C° 0 mm 3 mps 760 mmHg 88%
    07:00 +17°C° 0 mm 3 mps 760 mmHg 88%
    08:00 +19°C° 0 mm 3 mps 761 mmHg 77%
    09:00 +20°C° 0 mm 3 mps 761 mmHg 66%
    10:00 +22°C° 0 mm 3 mps 761 mmHg 56%
    11:00 +24°C° 0 mm 3 mps 761 mmHg 49%
    12:00 +26°C° 0 mm 3 mps 760 mmHg 42%
    13:00 +27°C° 0 mm 2 mps 760 mmHg 35%
    14:00 +27°C° 0 mm 2 mps 759 mmHg 34%
    15:00 +28°C° 0 mm 2 mps 759 mmHg 34%
    16:00 +28°C° 0 mm 1 mps 759 mmHg 33%
    17:00 +26°C° 0 mm 1 mps 760 mmHg 40%
    18:00 +23°C° 0 mm 1 mps 760 mmHg 46%
    19:00 +21°C° 0 mm 1 mps 760 mmHg 52%
    20:00 +21°C° 0 mm 1 mps 761 mmHg 55%
    21:00 +20°C° 0 mm 1 mps 761 mmHg 57%
    22:00 +19°C° 0 mm 1 mps 761 mmHg 59%
    23:00 +19°C° 0 mm 1 mps 761 mmHg 60%
    Show more